Printer-friendly version

IAU Minor Planet Center

Minor Planet Center

MPEC 2006-Q33 : 2006 QM33

The following Minor Planet Electronic Circular may be linked-to from your own Web pages, but must not otherwise be redistributed electronically.


Read MPEC 2006-Q32 Read MPEC 2006-Q34


M.P.E.C. 2006-Q33                                Issued 2006 Aug. 25, 12:17 UT

     The Minor Planet Electronic Circulars contain information on unusual
         minor planets and routine data on comets.  They are published
   on behalf of Commission 20 of the International Astronomical Union by the
          Minor Planet Center, Smithsonian Astrophysical Observatory,
                          Cambridge, MA 02138, U.S.A.

                  Supported in part by the Brinson Foundation
                  Supported in part by the TABASGO Foundation
             Prepared using the Tamkin Foundation Computer Network

                              MPC@CFA.HARVARD.EDU
          URL http://cfa-www.harvard.edu/iau/mpc.html  ISSN 1523-6714

                                   2006 QM33

Observations:
     K06Q33M* C2006 08 24.25065 22 48 35.19 +00 15 57.7          19.2   EQ033704
     K06Q33M  C2006 08 24.26206 22 48 35.72 +00 14 02.3          19.6   EQ033704
     K06Q33M  C2006 08 24.27355 22 48 36.27 +00 12 05.3          19.6   EQ033704
     K06Q33M  C2006 08 24.28526 22 48 36.85 +00 10 07.7          19.3   EQ033704
     K06Q33M  C2006 08 24.29691 22 48 37.40 +00 08 09.7          19.6   EQ033704
     K06Q33M  C2006 08 24.98514 22 49 19.38 -01 48 59.4                 EQ033J95
     K06Q33M  C2006 08 24.98625 22 49 19.48 -01 49 10.3                 EQ033J95
     K06Q33M  C2006 08 24.98750 22 49 19.53 -01 49 23.0          18.3 R EQ033J95
     K06Q33M  C2006 08 25.09929 22 49 27.56 -02 08 23.9          18.7 R EQ033850
     K06Q33M  C2006 08 25.13039 22 49 29.33 -02 13 42.5          19.4 R EQ033850
     K06Q33M  C2006 08 25.13092 22 49 28.05 -02 13 14.9          18.4 R EQ033I77
     K06Q33M  C2006 08 25.13271 22 49 28.15 -02 13 33.3          18.3 R EQ033I77
     K06Q33M  C2006 08 25.13508 22 49 28.26 -02 13 58.1          18.4 R EQ033I77
     K06Q33M  C2006 08 25.16166 22 49 30.99 -02 19 04.0          18.7 R EQ033850
     K06Q33M 5C2006 08 25.24769 22 49 36.21 -02 33 48.4          18.5 R EQ033673
     K06Q33M 5C2006 08 25.26169 22 49 36.93 -02 36 13.0                 EQ033673
     K06Q33M 5C2006 08 25.27292 22 49 37.50 -02 38 09.7                 EQ033673
     K06Q33M 5C2006 08 25.28860 22 49 38.26 -02 40 51.1                 EQ033673
     K06Q33M 2C2006 08 25.35216 22 49 40.85 -02 51 44.4          18.5 R EQ033H06
     K06Q33M 2C2006 08 25.35697 22 49 41.15 -02 52 34.0          18.0 R EQ033H06
     K06Q33M 2C2006 08 25.36174 22 49 41.32 -02 53 22.9          18.3 R EQ033H06

Observer details:
673 Table Mountain Observatory, Wrightwood.  Observer J. Young.  0.61-m f/16
    Cassegrain + CCD.
704 Lincoln Laboratory ETS, New Mexico.  Observers M. Bezpalko, L. Manguso,
    D. Torres, R. Kracke, H. Love, G. Spitz, J. Kistler.  Measurers J. Stuart,
    J. Kommers.  1.0-m f/2.15 reflector + CCD.
850 Cordell-Lorenz Observatory, Sewanee.  Observers D. T. Durig, D. S. Hardage,
    J. E. Duke.  0.30-m f/9.7 Schmidt-Cassegrain + 1Kx1K CCD.
H06 RAS Observatory, Mayhill.  Observer R. Hutsebaut.  0.25-m reflector + CCD.
I77 CEAMIG-REA Observatory, Belo Horizonte.  Observers C. Jacques, E. Pimentel.
    Measurer C. Jacques.  0.30-m f/3.0 Schmidt-Cassegrain + CCD.
J95 Great Shefford.  Observer P. Birtwhistle.  0.40-m f/6.0 Schmidt-Cassegrain
    + CCD.

Orbital elements:
2006 QM33                                                Earth MOID = 0.2347 AU
Epoch 2006 Sept. 22.0 TT = JDT 2454000.5                MPC
M  13.44993              (2000.0)            P               Q
n   0.40403663     Peri.  174.15503     +0.86814785     +0.41321326
a   1.8121281      Node   154.91974     -0.47757302     +0.84626344
e   0.3136644      Incl.   40.43152     -0.13506786     -0.33629303
P   2.44           H   20.9           G   0.15           U   8
Residuals in seconds of arc
060824 704  0.6+  0.2-    060824 J95  0.0   0.3+    060825 673  0.2+  0.6+
060824 704  0.1+  0.0     060825 850  1.5-  0.9-    060825 673  0.5+  0.2+
060824 704  0.0   0.6-    060825 850  0.1+  0.2+    060825 673  0.6+  0.8-
060824 704  0.1+  0.5+    060825 I77  0.7-  0.2+    060825 673  0.5+  0.7-
060824 704  0.1-  0.6+    060825 I77  0.4-  0.2+    060825 H06  0.2-  0.2+
060824 J95  0.4-  0.4-    060825 I77  0.4-  0.2-    060825 H06  0.9+  0.2+
060824 J95  0.2+  0.1+    060825 850  0.9+  0.3+    060825 H06  0.0   0.4+

Ephemeris:
2006 QM33                a,e,i = 1.81, 0.31, 40                  q = 1.2437
Date    TT    R. A. (2000) Decl.     Delta      r     Elong.  Phase     V
2006 08 23    22 47.30   +03 44.7    0.243    1.244   161.7    14.8    19.1
2006 09 02    22 57.41   -24 23.9    0.248    1.249   163.3    13.4    19.1
2006 09 12    23 07.75   -45 04.7    0.313    1.260   139.2    31.5    20.2
2006 09 22    23 18.75   -56 08.8    0.407    1.276   123.9    40.8    21.1
2006 10 02    23 30.94   -61 25.9    0.512    1.297   114.1    44.8    21.7

Timothy B. Spahr             (C) Copyright 2006 MPC           M.P.E.C. 2006-Q33

Read MPEC 2006-Q32 Read MPEC 2006-Q34


Our Web policy. Index to the CBAT/MPC/ICQ pages.


Valid HTML 4.01!